GEFSSE_con_cape1000_036.txt.gz
Probability
94 100 100 100 100 100 100 100 100 100 100 100 100 100 100 100 100 100 100 100 100 100 100 100 100 100 100 100 100 100 100 100 100 100 100 100 100 100 100 100 100 100 100
97 100 100 100 100 100 100 100 100 100 100 100 100 100 100 100 100 100 100 100 100 100 100 100 100 97 97 100 100 100 100 100 100 100 100 100 100 100 100 100 100 100 100
100 100 100 100 100 100 100 100 100 100 100 100 100 100 100 100 100 100 100 100 100 100 100 100 94 87 87 84 87 94 94 97 100 100 100 97 100 100 100 100 100 100 100
100 100 100 100 100 100 100 100 100 100 100 100 100 100 100 100 100 100 100 100 100 100 100 97 87 48 45 35 48 65 81 87 97 87 52 94 97 100 100 100 100 100 100
97 100 100 100 100 100 100 100 100 100 100 100 100 100 100 100 100 100 100 100 100 100 100 84 45 23 10 13 16 39 65 84 81 42 45 71 94 100 100 100 100 100 100
97 100 100 100 100 100 100 100 100 100 100 100 100 100 100 100 100 100 100 100 100 100 100 71 39 13 6 6 13 26 52 61 32 13 35 68 81 97 100 100 100 100 100
100 100 100 100 100 100 100 100 100 100 100 100 100 100 100 100 100 100 100 100 100 100 87 58 29 16 3 3 6 13 52 48 3 16 39 55 71 94 97 100 100 100 97
100 100 100 100 100 100 100 100 100 100 100 100 100 100 100 100 100 100 100 100 100 97 81 55 35 16 3 3 3 10 45 52 26 32 42 65 81 94 97 100 100 100 100
100 100 100 100 100 100 100 100 100 100 100 100 100 100 100 100 100 100 100 100 100 97 81 58 48 32 19 3 10 16 39 55 10 23 32 74 84 90 100 100 100 100 100
90 100 100 100 100 100 100 100 100 100 100 100 100 100 100 100 100 100 100 100 100 100 90 71 58 48 42 19 16 19 48 32 0 6 23 68 87 97 97 100 100 97 97
81 97 100 100 100 100 100 100 100 100 100 100 100 100 100 100 100 100 100 100 100 100 100 81 74 61 55 35 32 26 10 0 0 6 10 68 94 81 77 71 71 71 71
71 71 97 97 100 100 100 100 100 100 100 100 100 100 97 77 87 97 100 100 100 100 100 100 90 81 52 13 0 10 0 0 0 3 26 81 84 65 58 52 45 42 35
65 61 90 97 97 97 94 100 100 100 100 97 97 100 55 10 19 71 81 100 100 100 97 90 81 58 23 0 0 0 0 0 0 3 26 74 84 58 35 26 26 19 16
71 68 84 81 68 52 84 81 84 71 68 48 45 61 19 6 13 42 55 87 90 68 26 23 16 13 0 0 0 0 0 0 0 0 23 84 81 65 39 26 23 10 3
90 77 84 84 77 74 74 45 45 48 35 23 55 48 32 10 23 29 48 52 45 29 16 13 6 3 0 0 0 0 0 0 0 0 10 71 81 77 42 16 13 6 3
87 94 94 90 87 90 87 71 68 68 68 39 65 68 48 23 26 23 26 35 39 23 13 6 6 6 0 0 0 0 0 0 0 0 3 13 48 48 48 45 19 13 3
81 87 94 97 100 97 90 94 94 87 87 74 77 71 65 32 16 23 26 32 32 19 13 6 3 0 0 0 0 0 0 0 0 0 0 0 0 16 26 19 13 10 3
71 87 94 100 100 100 100 100 100 90 84 81 74 81 77 65 35 23 29 26 10 10 3 3 0 0 0 0 0 0 0 0 0 0 0 0 0 0 0 3 3 6 0
48 74 90 94 100 100 100 97 90 87 81 81 65 65 74 68 48 26 19 10 10 10 0 0 0 0 0 0 0 0 0 0 0 0 0 0 0 0 0 0 0 0 0
32 81 87 97 97 97 94 84 81 65 61 58 48 55 48 45 32 16 10 6 10 6 0 0 0 0 0 0 0 0 0 0 0 0 0 0 0 0 0 0 0 0 0
45 61 84 94 94 90 84 71 71 58 48 42 32 23 26 19 13 10 10 3 0 0 0 0 0 0 0 0 0 0 0 0 0 0 0 0 0 0 0 0 0 0 0
35 61 77 94 94 81 74 65 52 32 16 13 6 6 6 6 6 6 0 0 0 0 0 0 0 0 0 0 0 0 0 0 0 0 0 0 0 0 0 0 0 0 0
42 58 74 84 81 77 61 52 32 10 6 3 3 3 3 3 3 0 0 0 0 0 0 0 0 0 0 0 0 0 0 0 0 0 0 0 0 0 0 0 0 0 0
42 52 65 74 74 71 55 45 45 35 19 0 0 0 0 0 0 0 0 0 0 0 0 0 0 0 0 0 0 0 0 0 0 0 0 0 0 0 0 0 0 0 0
58 61 68 71 65 52 55 48 45 26 6 0 0 0 0 0 0 0 0 0 0 0 0 0 0 0 0 0 0 0 0 0 0 0 0 0 0 0 0 0 0 0 0
55 55 65 55 55 45 39 26 23 6 3 0 0 0 0 0 0 0 0 0 0 0 0 0 0 0 0 0 0 0 0 0 0 0 0 0 0 0 0 0 0 0 0

GEFSSE_con_cape1000_042.txt.gz
Probability
48 100 100 100 100 100 100 100 100 100 100 100 100 100 100 100 100 100 100 100 100 100 100 100 100 100 100 100 100 100 100 100 100 100 100 100 100 100 100 100 100 100 100
74 100 100 100 100 100 100 100 100 100 100 100 100 100 100 100 100 100 100 100 100 100 100 100 100 100 100 100 100 100 100 100 100 100 100 100 100 100 100 100 100 100 100
100 100 100 100 100 100 100 100 100 100 100 100 100 100 100 100 100 100 100 100 100 100 100 100 100 100 100 100 100 100 100 100 100 100 100 100 100 100 100 100 100 100 100
100 100 100 100 100 100 100 100 100 100 100 100 100 100 100 100 100 100 100 100 100 100 100 97 94 90 94 97 97 100 100 100 100 100 97 100 100 100 100 100 100 100 100
100 100 100 100 100 100 100 100 100 100 100 100 100 100 100 100 100 100 100 100 100 100 97 94 84 74 74 77 84 90 94 94 100 84 90 97 100 100 100 100 100 100 100
100 100 100 100 100 100 100 100 100 100 100 100 100 100 100 100 100 100 100 100 100 100 97 81 65 48 48 52 68 84 84 90 74 65 77 97 100 100 100 100 100 100 100
97 97 100 100 100 100 100 100 100 100 100 100 100 100 100 100 100 100 100 100 100 100 87 74 55 32 35 42 48 68 77 77 32 52 71 87 100 100 100 100 100 100 100
97 100 100 100 100 100 100 100 100 100 100 100 100 100 100 100 100 100 100 100 100 97 84 65 39 19 13 13 42 61 71 68 42 48 71 81 90 100 100 100 100 100 100
94 100 100 100 100 100 100 100 100 100 100 100 100 100 100 100 100 100 100 100 100 97 84 61 35 23 13 13 19 48 74 61 13 48 61 74 90 100 100 100 100 100 100
97 100 100 100 100 100 100 100 100 100 100 100 100 100 100 100 100 100 100 100 100 97 84 65 48 35 32 13 19 32 71 74 6 26 48 74 94 100 100 100 97 97 97
100 100 100 100 100 100 100 100 100 100 100 100 100 100 100 100 100 100 100 100 100 97 94 87 65 55 42 35 23 32 52 16 0 10 35 81 97 94 90 90 87 71 77
100 100 100 100 100 100 100 100 100 100 100 100 100 100 100 100 100 100 100 100 100 100 100 97 90 68 52 23 6 39 0 0 0 10 23 90 94 71 65 68 68 61 48
81 100 97 100 100 100 100 100 100 100 100 100 100 100 87 61 74 97 84 97 100 100 94 68 52 42 26 10 3 0 0 0 3 6 29 87 84 58 48 52 45 29 26
58 87 97 97 97 94 94 100 97 97 100 94 94 87 48 19 19 29 23 39 81 71 39 19 13 10 10 0 0 0 0 0 0 10 39 81 84 55 29 26 23 19 23
26 68 87 94 94 84 58 87 84 74 77 71 65 55 32 19 13 10 13 13 35 23 16 13 10 13 3 0 0 0 0 0 0 3 32 77 74 65 39 10 6 6 6
10 29 61 90 87 68 39 61 61 42 39 26 26 32 13 10 0 3 3 6 10 10 3 6 6 3 0 0 0 0 0 0 0 3 16 45 74 55 48 26 16 16 6
26 23 32 65 55 35 26 29 26 32 19 19 16 13 13 10 0 0 3 3 3 3 3 3 0 0 0 0 0 0 0 0 0 0 0 6 13 35 35 26 23 13 10
61 19 29 65 39 23 13 13 10 10 10 10 0 0 16 10 0 0 0 0 0 3 3 0 0 0 0 0 0 0 0 0 0 0 0 0 0 3 10 13 13 6 6
77 52 45 52 32 19 6 6 6 6 3 6 10 0 19 10 0 0 0 0 0 0 0 0 0 0 0 0 0 0 0 0 0 0 0 0 0 0 0 0 0 0 0
77 71 65 65 58 26 10 16 16 19 19 16 13 13 10 13 10 0 0 0 3 0 0 0 0 0 0 0 0 0 0 0 0 0 0 0 0 0 0 0 0 0 0
68 65 77 71 68 61 55 55 55 48 42 29 29 26 16 13 6 3 0 0 0 0 0 0 0 0 0 0 0 0 0 0 0 0 0 0 0 0 0 0 0 0 0
58 61 68 68 71 71 58 58 42 35 16 16 10 6 6 6 6 6 3 3 0 0 0 0 0 0 0 0 0 0 0 0 0 0 0 0 0 0 0 0 0 0 0
52 52 71 81 74 61 61 35 13 3 3 3 0 0 0 0 0 0 0 0 0 0 0 0 0 0 0 0 0 0 0 0 0 0 0 0 0 0 0 0 0 0 0
35 39 48 65 61 68 58 52 45 42 35 16 6 0 0 0 0 0 0 0 0 0 0 0 0 0 0 0 0 0 0 0 0 0 0 0 0 0 0 0 0 0 0
29 32 45 61 55 55 45 42 42 26 16 3 0 0 0 0 0 0 0 0 0 0 0 0 0 0 0 0 0 0 0 0 0 0 0 0 0 0 0 0 0 0 0
19 29 39 42 48 39 35 35 29 13 6 3 0 0 0 0 0 0 0 0 0 0 0 0 0 0 0 0 0 0 0 0 0 0 0 0 0 0 0 0 0 0 0

GEFSSE_con_cape1000_048.txt.gz
Probability
68 87 100 100 100 100 100 100 100 100 100 100 100 100 100 100 100 100 100 100 100 100 100 100 100 100 100 100 100 100 100 100 100 100 100 100 100 100 100 100 100 97 100
81 90 100 100 100 100 100 100 100 100 100 100 100 100 100 100 100 100 100 100 100 100 100 100 100 100 100 100 100 100 100 100 100 100 100 100 100 100 100 100 100 100 100
81 90 100 100 100 100 100 100 100 100 100 100 100 100 100 100 100 100 100 100 100 100 100 100 100 100 100 100 100 100 100 100 100 100 100 97 100 100 100 100 100 100 100
81 87 90 100 100 100 100 100 100 100 100 100 100 100 100 100 100 100 100 100 100 100 100 100 100 100 100 100 100 100 100 100 100 100 97 90 100 100 100 100 100 100 100
84 90 100 100 100 100 100 100 100 100 100 100 100 100 100 100 100 100 100 100 100 100 100 100 100 100 100 100 100 100 100 100 100 100 87 97 100 100 100 100 100 100 100
84 94 100 100 100 100 100 100 100 100 100 100 100 100 100 100 100 100 100 100 100 100 100 87 90 90 94 97 97 97 100 100 100 87 97 100 100 100 100 100 100 100 100
87 94 100 100 100 100 100 100 100 100 100 100 100 100 100 100 100 100 100 100 100 97 84 71 55 58 65 68 74 81 100 100 100 84 90 94 100 100 100 97 100 100 100
90 94 100 100 100 100 100 100 100 100 100 100 100 100 100 100 100 100 100 100 97 84 74 48 26 19 26 35 58 68 77 97 71 65 77 90 100 100 97 94 100 100 100
94 97 100 100 100 100 100 100 100 100 100 100 100 100 100 100 100 100 100 100 97 87 71 39 26 16 13 19 35 65 68 74 68 65 55 90 100 97 97 100 100 100 100
97 100 100 100 100 100 100 100 100 100 100 100 100 100 100 100 100 100 100 100 97 87 74 45 35 26 10 10 19 45 55 65 48 42 35 90 97 94 90 94 94 97 94
100 100 100 97 100 100 100 100 100 100 100 100 100 100 100 100 90 100 100 100 97 90 81 65 48 39 32 19 13 26 68 52 39 39 39 94 97 94 94 87 84 74 71
100 100 97 97 97 100 100 100 100 100 100 100 100 100 100 100 97 48 100 100 100 100 94 84 65 48 32 19 16 29 39 42 26 23 68 94 97 90 81 77 74 68 65
100 100 100 100 100 100 100 100 100 100 100 100 100 100 100 100 100 81 97 100 100 100 94 94 71 35 19 19 23 19 19 26 29 10 61 94 87 81 74 71 71 55 39
100 100 100 100 100 100 100 100 100 100 100 100 100 100 100 100 94 90 100 77 94 97 97 84 61 45 32 19 13 13 6 19 23 16 77 94 87 74 55 58 58 45 39
100 100 100 100 100 100 100 100 100 100 100 100 100 100 100 100 94 94 100 97 90 90 100 94 61 52 45 29 13 3 16 16 26 19 61 81 84 81 65 55 42 32 23
100 100 100 100 100 100 100 100 100 100 100 100 100 100 100 100 90 100 100 100 97 97 97 94 87 77 58 26 26 26 23 16 32 26 19 52 81 81 61 55 35 19 16
100 100 100 100 100 100 100 100 100 100 100 100 100 100 100 97 100 100 97 100 100 100 100 100 97 71 65 35 39 42 32 29 23 32 19 23 32 48 55 55 45 23 16
100 100 100 100 100 100 100 100 100 100 100 100 100 100 100 100 100 100 100 100 100 100 100 100 90 71 45 29 32 29 35 52 42 29 19 13 29 13 26 23 16 16 10
100 100 100 100 100 100 100 100 100 100 100 100 100 100 100 100 100 100 100 100 100 100 100 87 84 84 65 55 39 39 26 26 29 16 6 10 6 6 6 10 10 10 3
100 100 100 100 100 100 100 100 100 100 100 100 100 100 100 100 100 100 100 97 97 100 100 84 84 77 71 61 10 3 0 0 0 3 3 0 3 3 3 3 3 0 0
100 100 100 100 100 100 100 100 100 100 100 100 100 100 97 90 90 90 84 84 84 84 87 65 65 58 48 32 19 6 3 0 0 0 0 0 0 0 0 0 0 0 0
100 100 100 100 100 100 100 100 100 100 97 97 90 90 87 87 87 77 77 77 65 71 61 58 45 35 16 16 23 29 6 0 0 0 0 0 0 0 0 0 0 0 0
100 97 100 100 100 100 94 94 90 90 87 84 81 81 81 74 74 65 61 61 61 58 48 39 26 29 6 0 0 16 10 3 0 0 0 0 0 0 0 0 0 0 0
90 100 100 97 94 94 94 94 90 90 87 84 81 68 48 45 45 42 45 45 39 23 19 16 10 6 6 0 0 0 0 3 0 0 0 0 0 0 0 0 0 0 0
84 84 90 90 90 90 90 84 84 87 77 68 65 39 19 19 10 10 13 13 10 6 0 0 0 0 0 0 0 0 0 0 0 0 0 0 0 0 0 0 0 0 0
65 68 74 81 81 81 77 81 84 77 74 65 55 26 19 13 3 3 3 6 6 3 3 0 0 0 0 0 0 0 0 0 0 0 0 0 0 0 0 0 0 0 0

GEFSSE_con_cape1000_054.txt.gz
Probability
90 97 100 100 100 100 100 100 100 100 100 100 100 100 100 100 100 100 100 100 100 100 100 100 100 100 100 100 100 100 100 100 100 100 100 100 100 100 100 100 100 97 100
94 97 100 100 100 100 100 100 100 100 100 100 100 100 100 100 100 100 100 100 100 100 100 100 100 100 100 100 100 100 100 100 100 100 100 100 100 100 100 100 100 100 100
97 97 100 100 100 100 100 100 100 100 100 100 100 100 100 100 100 100 100 100 100 100 100 100 100 100 100 100 100 100 100 100 100 100 100 100 100 100 100 100 100 100 100
97 97 97 100 100 100 100 100 100 100 100 100 100 100 100 100 100 100 100 100 100 100 100 100 100 100 100 100 100 100 100 100 100 100 100 100 97 100 100 100 100 100 100
97 97 100 100 100 100 100 100 100 100 100 100 100 100 100 100 100 100 100 100 100 100 100 100 100 100 100 100 100 100 100 100 100 100 97 100 100 100 100 100 100 100 100
100 100 100 100 100 100 100 100 100 100 100 100 100 100 100 100 100 100 100 100 100 100 97 97 100 100 100 97 97 100 100 100 100 97 100 100 100 100 100 100 100 100 100
100 100 100 100 100 100 100 100 100 100 100 100 100 100 100 100 100 100 100 97 90 90 81 71 81 77 84 81 87 90 97 100 100 90 97 100 97 100 100 100 100 100 100
100 100 100 100 100 100 100 100 100 100 100 100 100 100 100 100 100 100 100 97 90 81 58 52 48 55 58 61 65 71 74 94 94 94 100 94 100 100 97 100 100 100 97
100 100 100 100 100 100 100 100 100 100 100 100 100 100 100 100 100 100 100 94 81 74 48 29 23 26 26 39 48 55 71 84 65 87 94 90 100 97 97 100 100 94 94
97 97 100 100 100 100 100 100 100 100 100 100 100 100 100 100 100 100 97 97 81 68 45 39 16 13 19 19 26 48 61 71 45 55 74 87 100 97 94 97 90 90 77
97 97 100 100 100 100 100 100 100 100 100 100 100 100 100 100 100 100 94 94 84 71 52 35 32 26 23 29 32 58 61 35 26 48 71 97 100 100 97 94 87 77 61
100 100 94 100 100 100 100 100 100 97 100 97 100 100 100 100 100 90 94 94 90 84 71 65 42 35 29 16 26 48 19 16 10 48 65 97 100 97 94 84 74 65 48
100 100 90 100 100 100 100 97 100 94 100 100 100 100 100 100 100 100 97 100 97 97 81 84 61 29 26 42 39 6 3 6 23 39 81 97 100 97 84 74 71 61 42
100 100 100 100 100 100 100 100 100 100 100 100 100 100 100 100 100 100 97 97 100 94 97 90 84 52 55 58 39 23 13 16 29 39 77 100 97 94 77 71 58 48 42
100 100 100 100 100 100 100 100 100 100 100 100 100 100 100 100 100 100 100 100 100 100 100 100 94 84 74 58 42 23 26 29 26 35 55 94 90 87 71 65 61 45 39
100 100 100 100 100 100 100 100 100 100 100 100 100 100 100 100 100 100 100 100 100 100 97 100 100 100 87 84 74 58 35 23 52 42 45 74 84 84 77 71 58 52 29
100 100 100 100 100 100 100 100 100 100 100 100 100 97 97 97 100 100 100 100 100 100 100 100 100 100 100 87 77 71 48 45 45 42 39 35 52 77 74 71 68 45 29
100 100 100 100 100 100 100 100 100 100 100 100 100 100 100 100 100 100 100 100 100 100 100 100 100 100 97 90 81 71 65 68 45 42 35 29 23 23 45 61 61 52 35
100 100 100 100 100 100 100 100 100 100 100 100 100 100 100 100 100 100 97 97 94 90 94 90 94 97 87 87 74 71 48 45 42 26 26 13 16 10 10 32 42 29 19
100 100 100 100 100 100 100 100 100 100 100 100 100 100 100 100 97 97 97 94 94 90 84 81 74 71 71 58 26 16 26 19 23 26 23 6 6 3 6 3 3 10 13
100 100 100 100 100 100 100 100 100 100 97 94 94 94 94 90 90 94 90 94 87 87 81 77 68 58 58 32 13 3 0 0 3 6 3 0 0 0 0 0 0 0 0
97 100 100 100 100 100 100 97 97 97 94 94 90 90 87 87 84 81 84 84 81 77 74 68 61 58 26 10 6 6 0 0 0 0 0 0 0 0 0 0 0 0 0
90 97 97 97 97 94 94 94 94 94 90 90 90 90 81 81 81 77 74 74 71 65 58 55 48 35 23 10 6 0 0 0 0 0 0 0 0 0 0 0 0 0 0
81 81 90 87 84 84 87 90 94 90 90 90 84 81 68 65 52 58 58 58 55 55 48 42 35 26 16 6 3 0 0 0 0 0 0 0 0 0 0 0 0 0 0
45 61 71 65 71 74 81 81 81 87 81 71 71 65 55 42 23 19 16 13 19 16 13 13 13 13 10 6 3 0 0 0 0 0 0 0 0 0 0 0 0 0 0
32 39 39 48 55 58 55 55 58 65 55 58 55 48 26 19 16 6 6 6 10 10 6 6 6 6 6 3 3 0 0 0 0 0 0 0 0 0 0 0 0 0 0

GEFSSE_con_cape1000_060.txt.gz
Probability
87 100 100 100 100 100 100 100 100 100 100 100 100 100 100 100 100 100 100 100 100 100 100 100 100 100 100 100 100 100 100 100 100 100 100 100 100 100 100 100 97 97 97
84 97 100 100 100 100 100 100 100 100 100 100 100 100 100 100 100 100 100 100 100 100 100 100 100 100 100 100 100 100 100 100 100 100 100 100 100 100 100 100 100 97 100
87 97 100 100 100 100 100 100 100 100 100 100 100 100 100 100 100 100 100 100 100 100 100 100 100 100 100 100 100 100 100 100 100 100 100 100 100 100 100 100 100 100 100
90 97 100 100 100 100 100 100 100 100 100 100 100 100 100 100 100 100 100 100 100 100 100 100 100 100 100 100 100 100 100 100 100 100 97 100 100 100 100 100 100 100 100
90 94 100 100 100 100 100 100 100 100 100 100 100 100 100 100 100 100 100 100 100 100 100 100 100 100 100 100 100 100 100 100 100 97 87 94 100 100 100 100 100 100 100
97 97 100 100 100 100 100 100 100 100 100 100 100 100 100 100 100 100 100 100 100 100 100 100 100 100 100 100 100 100 100 100 94 68 84 100 100 100 100 100 100 100 100
94 97 100 100 100 100 100 100 100 100 100 100 100 100 100 100 100 100 100 100 97 97 97 97 100 97 97 90 87 87 97 97 58 58 74 94 100 100 100 100 100 100 100
94 100 100 100 100 100 100 100 100 100 100 100 100 100 100 100 100 100 100 97 94 94 87 77 77 81 74 74 68 77 84 87 77 61 77 77 100 100 100 100 100 100 100
97 100 100 100 100 100 100 100 100 100 100 100 100 100 100 100 100 100 97 90 81 77 71 58 58 55 52 48 45 61 71 74 13 32 71 77 97 100 100 100 100 100 97
97 100 100 100 100 100 100 100 100 100 100 100 100 100 100 100 100 100 97 97 81 81 61 42 45 42 45 45 45 52 74 55 0 23 42 74 100 100 100 100 97 94 94
100 100 100 100 100 100 100 100 100 100 100 100 100 100 100 100 100 100 94 94 84 74 68 52 48 52 45 39 52 55 42 0 0 3 26 87 100 100 100 97 94 90 81
100 100 100 100 100 100 100 100 100 100 100 100 100 100 97 71 71 94 90 90 87 84 77 71 58 48 35 10 6 35 3 0 0 3 19 90 94 100 97 94 87 77 74
100 100 100 100 100 100 100 100 100 97 87 84 94 87 29 19 35 58 68 90 87 81 71 68 68 39 26 3 0 0 0 0 0 3 23 94 100 97 97 94 84 77 74
94 94 100 97 97 87 97 94 77 65 61 42 48 39 16 3 10 6 32 61 55 39 19 6 10 13 6 6 3 0 0 0 0 0 26 90 100 97 94 90 84 84 77
94 84 94 97 87 71 68 65 48 35 23 16 19 19 10 0 6 13 10 13 16 10 6 0 3 3 6 3 0 0 0 0 0 0 16 94 97 97 94 87 84 90 87
77 81 87 81 65 71 68 55 45 29 16 10 26 29 13 10 13 13 10 13 6 0 3 0 0 3 3 0 0 0 0 0 0 0 6 65 94 97 94 87 90 90 81
68 74 81 74 71 68 52 39 42 32 26 16 26 48 48 26 16 19 13 10 6 3 0 0 3 3 0 0 6 6 3 0 0 6 10 32 32 84 90 94 94 84 74
68 65 74 87 74 58 52 39 45 48 42 35 48 58 61 68 52 35 23 26 10 6 10 6 3 3 3 3 0 0 0 0 0 0 0 0 10 16 45 84 87 87 77
55 61 77 77 90 81 71 58 61 71 61 65 74 68 81 77 65 48 29 29 13 19 19 26 3 0 0 0 0 0 0 0 0 0 0 0 0 0 0 16 68 68 65
61 68 77 84 77 87 87 77 77 77 77 84 87 71 71 68 65 52 35 26 29 26 19 13 6 0 0 0 0 0 0 0 0 0 0 0 0 0 0 0 3 19 48
55 61 61 87 81 87 81 87 77 81 77 74 77 71 68 65 65 52 45 23 23 19 16 6 3 0 0 0 0 0 0 0 0 0 0 0 0 0 0 0 0 0 0
48 52 52 68 74 84 81 84 81 71 71 58 55 48 45 35 42 39 29 23 19 13 6 3 0 0 0 0 0 0 0 0 0 0 0 0 0 0 0 0 0 0 0
23 32 45 45 48 58 65 74 71 71 61 52 45 39 35 35 32 23 23 19 16 10 10 3 0 3 0 0 0 0 0 0 0 0 0 0 0 0 0 0 0 0 0
19 23 29 35 35 39 42 45 58 65 55 42 32 26 23 13 13 10 10 10 10 10 6 6 0 3 3 0 0 0 0 0 0 0 0 0 0 0 0 0 0 0 0
16 16 19 23 26 26 35 39 39 35 39 26 29 23 10 10 10 10 10 10 10 6 3 3 3 3 3 3 0 0 0 0 0 0 0 0 0 0 0 0 0 0 0
6 10 13 23 23 19 16 16 19 23 23 26 16 13 6 6 6 6 6 3 3 3 3 3 3 3 3 3 3 0 0 0 0 0 0 0 0 0 0 0 0 0 0

GEFSSE_con_cape1000_066.txt.gz
Probability
68 97 100 100 100 100 100 100 100 100 100 100 100 100 100 100 100 100 100 100 100 100 100 100 100 100 100 100 100 100 100 100 100 100 100 100 100 100 97 97 97 97 97
77 97 100 100 100 100 100 100 100 100 100 100 100 100 100 100 100 100 100 100 100 100 100 100 100 100 100 100 97 97 100 100 100 100 100 100 100 100 100 97 97 97 97
87 100 100 100 100 100 100 100 100 100 100 100 100 100 100 100 100 100 100 100 100 100 100 100 100 100 100 100 100 100 100 100 100 100 100 97 97 100 100 97 97 97 97
90 100 100 100 100 100 100 100 100 100 100 100 100 100 100 100 100 100 100 100 100 100 100 100 100 100 100 100 100 100 100 100 100 100 97 97 97 100 100 100 100 100 100
94 100 100 100 100 100 100 100 100 100 100 100 100 100 100 100 100 100 100 100 100 100 100 100 100 100 100 100 100 100 100 100 100 100 94 97 100 100 100 100 100 100 97
97 100 100 100 100 100 100 100 100 100 100 100 100 100 100 100 100 100 100 100 100 100 100 100 100 100 100 100 100 100 100 100 97 97 97 100 100 100 100 100 100 100 100
90 94 100 100 100 100 100 100 100 100 100 100 100 100 100 100 100 100 100 100 100 100 100 100 100 100 97 97 97 100 100 100 61 90 94 100 100 100 100 100 100 100 100
90 97 97 100 100 100 100 100 100 100 100 100 100 100 100 100 100 100 100 100 100 100 97 97 97 90 90 90 90 90 94 87 74 68 87 100 100 100 100 100 100 100 100
90 97 97 97 100 100 100 100 100 100 100 100 100 100 100 100 100 100 100 97 94 94 94 84 84 74 71 74 74 61 71 74 39 68 74 97 100 100 100 100 100 100 100
90 97 97 97 100 100 100 100 100 100 100 100 100 100 100 100 100 100 97 94 87 84 74 68 65 61 61 39 29 52 61 65 19 45 68 84 100 100 100 100 100 100 100
90 97 97 100 100 100 100 100 100 100 100 100 100 100 100 100 97 97 90 90 84 81 65 65 58 52 39 26 26 29 35 13 10 39 45 84 100 100 100 100 100 97 97
87 97 100 100 100 100 100 100 100 100 100 100 100 100 100 87 81 90 90 90 84 81 74 68 61 42 29 10 6 13 3 0 3 13 32 81 100 100 100 100 97 97 90
87 94 100 100 100 100 100 100 100 100 100 100 100 100 74 55 55 77 55 77 77 77 68 58 58 39 26 10 0 0 0 0 3 10 23 74 97 97 100 97 94 94 84
87 97 100 100 100 100 100 100 100 100 100 97 97 84 55 35 26 26 19 29 52 52 48 19 16 23 16 6 3 3 0 0 0 0 10 65 94 97 100 94 94 84 81
87 94 97 100 100 100 100 100 100 97 94 84 81 74 32 16 13 10 10 13 16 16 16 13 10 6 10 3 3 3 3 3 0 0 6 35 87 97 100 87 90 87 90
87 90 90 100 97 97 94 94 94 84 71 71 65 65 26 13 10 6 6 6 10 13 16 13 13 6 3 6 0 0 0 0 0 0 0 16 65 97 94 90 84 81 87
77 94 90 97 97 94 94 87 84 65 58 45 48 42 23 10 3 3 6 6 13 16 13 10 6 0 0 0 0 0 0 0 0 0 3 13 16 65 87 87 90 90 81
65 74 81 90 90 87 81 71 48 45 29 35 16 13 13 10 3 0 6 10 13 13 10 10 3 0 0 0 0 0 0 0 0 0 6 3 6 19 48 74 74 84 71
58 61 74 71 68 65 55 42 32 26 26 19 6 6 16 23 10 3 3 10 13 10 10 10 0 0 0 0 0 0 0 0 0 0 3 3 6 10 16 13 52 48 45
52 52 48 39 45 45 39 29 13 13 13 10 3 3 13 23 35 13 13 6 3 10 3 0 0 0 0 0 3 3 3 0 0 0 0 0 0 0 3 6 13 10 23
45 42 48 35 32 29 32 29 19 16 10 3 3 6 13 16 19 23 16 6 3 3 6 3 0 0 3 0 0 3 0 0 0 0 0 0 0 0 0 0 0 0 3
32 29 32 29 32 32 32 29 19 10 10 6 13 6 13 16 19 26 6 3 0 3 0 0 0 0 0 0 0 3 0 0 0 0 0 0 0 0 0 0 0 0 0
23 23 19 16 23 19 23 13 10 6 3 3 6 3 6 10 13 13 10 10 0 0 3 0 0 0 0 0 0 0 0 0 0 0 0 0 0 0 0 0 0 0 0
13 13 16 13 10 13 13 13 3 3 3 3 3 3 0 0 0 3 3 6 6 6 6 3 0 0 0 0 0 0 0 0 0 0 0 0 0 0 0 0 0 0 0
13 13 13 13 10 13 13 10 6 3 3 0 0 0 0 0 0 0 0 0 0 0 0 6 6 0 0 0 3 0 0 0 0 0 0 0 0 0 0 0 0 0 0
16 16 13 13 13 6 3 6 3 3 3 0 0 0 0 0 0 0 0 0 0 0 0 0 0 0 0 0 0 0 0 0 0 0 0 0 0 0 0 0 0 0 0

GEFSSE_con_cape1000_072.txt.gz
Probability
71 84 100 100 100 100 100 100 100 100 100 100 100 100 100 100 100 100 100 100 100 100 100 100 100 100 100 100 97 97 100 100 100 100 100 100 100 100 100 100 100 97 100
81 87 100 100 100 100 100 100 100 100 100 100 100 100 100 100 100 100 100 100 100 100 100 100 100 100 100 100 100 100 100 100 100 100 100 100 100 100 100 100 100 100 100
87 90 100 100 100 100 100 100 100 100 100 100 100 100 100 100 100 100 100 100 100 100 100 100 100 100 100 100 100 100 100 100 100 100 100 94 97 100 100 100 100 97 97
90 90 94 100 100 100 100 100 100 100 100 100 100 100 100 100 100 100 100 100 100 100 100 100 100 100 100 100 100 100 100 100 100 100 94 87 90 97 100 97 100 97 97
87 87 100 100 100 100 100 100 100 100 100 100 100 100 100 100 100 100 100 100 100 100 100 100 100 97 97 100 100 100 100 100 100 97 71 81 94 100 100 97 100 97 97
87 87 100 100 100 100 100 100 100 100 100 100 100 100 100 100 100 100 100 100 100 100 100 100 100 100 100 100 100 100 100 100 97 77 84 87 97 100 100 100 97 97 97
90 90 100 100 100 100 100 100 100 100 100 100 100 100 100 100 100 100 100 100 100 100 100 97 100 100 100 97 100 100 100 100 90 58 81 81 97 100 100 100 100 100 97
94 97 100 100 100 100 100 100 100 100 100 100 100 100 100 100 100 100 100 100 100 100 100 100 100 97 90 94 94 94 97 100 71 58 71 74 100 100 100 100 100 100 100
94 97 100 100 100 100 100 100 100 100 100 100 100 100 100 100 100 100 100 100 100 100 100 94 87 87 84 81 77 77 84 90 84 71 39 81 100 100 100 100 100 100 100
97 100 100 100 100 100 100 100 100 100 100 100 100 100 100 100 100 100 100 100 97 90 90 77 74 68 65 48 48 61 68 68 77 74 61 97 100 100 100 100 100 100 100
97 100 100 100 100 97 97 97 100 100 100 97 100 100 100 94 94 97 87 97 90 87 74 71 65 65 45 26 23 29 45 61 71 74 77 100 100 100 100 100 100 100 100
97 97 100 97 100 97 97 97 97 94 97 97 97 100 97 90 84 65 87 84 84 71 68 68 68 48 19 32 19 13 23 45 45 48 84 94 97 100 100 100 100 100 100
100 97 94 100 97 97 97 97 97 94 97 97 97 100 100 90 87 68 81 84 90 81 68 81 68 29 13 13 19 16 10 16 29 29 61 90 94 100 100 97 100 100 100
100 97 97 97 97 97 97 97 97 100 97 97 100 100 100 94 84 74 87 58 77 81 77 55 58 23 19 13 13 10 13 26 23 26 55 90 90 94 90 90 94 97 97
100 97 97 97 90 90 90 94 97 100 100 100 97 97 100 94 87 81 81 87 68 48 61 65 48 35 32 32 26 26 26 29 26 16 42 87 84 90 90 84 90 94 97
94 94 94 94 97 97 90 90 100 97 97 97 97 94 97 94 90 90 90 97 84 65 71 71 65 65 65 52 45 42 48 32 45 55 58 68 77 77 87 84 87 87 84
87 90 94 87 94 90 87 90 90 94 90 97 97 94 94 100 100 100 97 100 87 87 94 94 90 81 84 81 65 71 65 65 52 55 58 71 61 48 68 74 81 87 74
84 94 90 87 87 90 90 90 87 84 94 97 97 87 94 97 97 100 97 90 90 97 97 97 90 81 84 81 77 74 68 77 71 68 55 55 74 61 65 58 61 65 77
87 90 87 84 84 87 84 87 87 84 90 94 94 90 94 97 97 100 97 94 90 90 90 84 77 81 74 77 61 68 58 68 58 52 52 35 45 45 42 39 45 52 52
81 81 81 81 77 74 77 81 77 81 90 90 87 94 94 97 97 90 90 84 87 90 90 87 90 87 77 77 42 39 61 55 45 35 39 35 42 39 35 29 48 45 32
74 81 77 77 81 77 77 77 81 77 77 81 74 74 84 84 84 87 81 84 87 87 81 71 74 65 68 58 55 48 52 29 45 42 29 23 19 26 23 19 26 29 29
48 58 61 58 65 68 74 81 81 74 71 61 65 68 65 71 81 81 87 84 77 71 65 61 68 58 48 42 42 39 32 32 35 10 13 13 10 6 6 10 10 10 10
26 32 42 52 55 55 61 68 65 58 48 42 48 42 39 42 58 55 65 55 58 52 42 42 48 48 52 32 29 32 29 16 16 13 6 6 6 6 6 6 6 10 10
23 29 32 39 45 45 55 58 55 42 42 32 26 16 16 16 16 23 29 32 39 39 35 29 32 29 29 29 16 16 13 13 10 6 6 6 3 10 6 3 3 3 3
16 26 29 29 32 35 48 45 39 32 26 10 10 13 10 3 3 6 10 10 10 10 6 6 10 13 16 16 16 10 10 10 3 3 3 3 3 6 6 3 0 0 0
16 19 23 29 29 26 29 26 26 23 10 6 6 3 3 3 3 3 3 6 6 6 3 3 3 3 3 0 0 0 0 0 3 3 3 3 3 6 0 0 0 0 0

GEFSSE_con_cape1000_078.txt.gz
Probability
94 100 100 100 100 100 100 100 100 100 100 100 100 100 100 100 100 100 100 100 100 100 100 100 100 100 100 100 100 100 100 100 100 100 100 100 100 100 100 100 100 100 100
97 100 100 100 100 100 100 100 100 100 100 100 100 100 100 100 100 100 100 100 100 100 100 100 100 100 100 100 100 100 100 100 100 100 100 100 100 100 100 100 100 94 100
100 100 100 100 100 100 100 100 100 100 100 100 100 100 100 100 100 100 100 100 100 100 100 100 100 100 100 100 100 100 100 100 100 100 100 97 97 100 100 100 100 100 100
100 100 100 100 100 100 100 100 100 100 100 100 100 100 100 100 100 100 100 100 100 100 100 100 100 100 100 100 100 100 100 100 100 100 97 94 97 97 100 100 97 97 94
100 100 100 100 100 100 100 100 100 100 100 100 100 100 100 100 100 100 100 100 100 100 100 100 100 100 100 100 100 100 100 100 100 100 94 97 97 97 97 94 94 94 97
97 100 100 100 100 100 100 100 100 100 100 100 100 100 100 100 100 100 100 100 100 100 100 100 100 100 100 100 100 100 97 94 97 94 94 97 94 97 94 94 94 94 94
97 100 100 100 100 100 100 100 100 100 100 100 100 100 100 100 100 100 100 100 100 97 97 97 100 100 97 97 97 97 94 94 94 94 74 90 97 100 100 97 97 94 94
100 100 100 100 100 100 100 100 100 100 100 100 100 100 100 100 100 100 100 100 100 97 97 97 97 94 94 94 94 90 94 97 94 77 77 90 100 100 97 97 97 97 94
100 100 100 100 100 100 100 100 100 100 100 100 100 100 100 100 100 100 100 100 100 100 97 94 87 90 94 94 84 81 84 90 71 90 81 90 97 100 94 97 94 94 97
100 100 100 100 100 100 100 100 100 100 100 100 100 100 100 100 100 100 100 100 97 97 97 87 87 87 87 81 74 65 68 74 29 42 84 87 100 97 100 97 97 97 94
100 100 100 97 100 100 100 100 100 100 100 100 100 100 100 100 100 100 100 100 94 94 87 84 84 84 74 74 74 65 58 35 16 52 87 97 97 100 100 100 100 97 97
97 97 100 97 97 97 97 100 100 100 100 100 100 100 100 100 100 90 100 100 97 90 90 87 84 74 61 39 52 77 19 23 16 42 77 97 100 100 100 100 100 94 94
97 97 97 97 97 90 94 97 100 97 100 100 100 100 100 100 100 97 94 94 94 94 77 87 77 58 23 32 61 35 19 13 16 26 87 97 97 100 100 100 97 94 90
97 94 94 94 97 90 90 94 97 94 97 90 100 100 100 100 100 90 90 74 87 81 87 81 81 35 48 48 45 32 19 29 26 45 90 97 97 100 97 90 90 94 94
97 100 100 90 94 94 90 94 90 94 87 90 90 94 97 94 94 90 87 87 74 77 87 90 81 68 74 55 35 26 39 32 29 39 81 90 84 87 90 84 81 87 84
94 94 97 94 87 87 84 84 87 87 94 90 87 90 90 94 94 97 94 94 97 94 77 90 81 94 81 77 68 65 52 39 42 58 65 84 84 81 81 77 68 71 71
90 87 90 84 87 87 84 84 87 84 90 84 90 87 87 90 90 90 94 97 94 90 90 90 81 90 87 77 81 81 71 74 68 71 68 71 65 61 61 65 68 65 61
90 87 84 77 77 87 77 81 77 71 74 68 71 81 84 77 74 84 84 87 94 84 87 90 84 90 90 94 90 84 71 74 68 71 58 65 52 48 45 48 52 48 45
84 84 84 81 77 77 74 74 65 65 65 65 58 71 74 65 68 71 81 84 90 87 84 81 84 90 90 87 81 84 77 74 68 52 52 48 52 52 32 19 32 26 29
74 77 81 74 71 68 61 61 55 58 55 45 45 55 58 58 55 58 68 71 74 77 74 77 84 81 77 71 35 45 71 61 58 48 45 29 26 16 13 13 16 13 16
65 68 65 68 68 71 65 55 55 58 52 45 42 45 45 55 55 58 52 68 68 74 74 68 71 71 74 71 55 45 39 42 42 35 26 13 13 13 13 13 16 10 10
45 52 58 55 61 65 65 55 52 52 45 35 29 29 35 42 45 55 65 68 68 68 71 71 71 65 58 58 48 32 19 19 23 6 13 16 10 13 6 3 3 6 6
26 32 35 48 52 52 55 61 39 42 39 32 29 23 29 29 29 39 48 52 61 55 52 52 58 52 45 42 32 29 10 13 3 10 6 6 6 3 3 3 3 0 3
19 19 29 29 45 45 45 55 42 39 32 32 26 23 19 29 29 29 29 32 35 29 29 23 29 35 32 29 29 23 13 3 0 0 3 3 3 3 3 0 0 0 0
16 19 23 29 29 29 42 42 39 32 23 26 13 10 19 16 13 13 19 19 23 23 16 16 16 19 16 13 6 6 3 3 0 0 0 0 0 0 0 0 0 0 0
6 10 19 26 26 26 26 29 23 16 13 13 13 10 10 10 6 6 3 10 6 13 10 6 3 3 3 3 3 3 3 3 3 0 0 0 0 0 0 0 0 0 0

GEFSSE_con_cape1000_084.txt.gz
Probability
87 100 100 100 100 100 100 100 100 100 100 100 100 100 100 100 100 100 100 100 100 100 100 100 100 100 100 100 100 100 100 100 100 100 100 100 100 100 100 100 97 94 100
87 100 100 100 100 100 100 100 100 100 100 100 100 100 100 100 100 100 100 100 100 100 100 100 100 100 100 100 100 100 100 100 100 100 100 100 100 100 100 100 94 97 100
90 100 100 100 100 100 100 100 100 100 100 100 100 100 100 100 100 100 100 100 100 100 100 100 100 100 100 100 100 100 100 100 100 100 100 94 100 100 100 100 97 97 100
97 100 100 100 100 100 100 100 100 100 100 100 100 100 100 100 100 100 100 100 100 100 100 100 100 100 100 100 100 100 100 100 100 97 65 81 97 97 100 100 97 94 94
94 100 100 100 100 100 100 100 100 100 100 100 100 100 100 100 100 100 100 100 100 100 100 100 100 100 100 100 97 97 97 100 90 87 55 61 87 97 97 100 100 94 94
94 97 100 100 100 100 100 100 100 100 100 100 100 100 100 100 100 100 100 100 100 100 100 100 100 100 97 97 97 94 90 97 90 55 58 65 87 97 97 97 97 97 94
94 94 100 100 100 100 100 100 100 100 100 100 100 100 100 100 100 100 100 100 100 100 100 100 100 97 97 97 90 84 87 94 55 35 45 61 77 97 97 94 94 94 94
94 94 97 100 100 100 100 100 100 100 100 100 100 100 100 100 100 100 100 100 100 100 100 100 100 97 97 90 87 84 84 74 61 32 32 39 74 97 97 97 94 94 94
90 94 94 94 97 100 100 100 100 100 100 100 100 100 100 100 100 100 100 100 100 97 97 100 97 97 94 90 87 77 74 77 23 6 39 32 97 100 94 94 94 97 94
94 94 94 94 94 94 100 100 100 100 100 100 100 100 100 100 100 100 100 100 100 100 97 94 94 97 94 90 87 84 77 58 3 3 23 45 97 100 100 97 94 94 94
94 94 94 94 94 94 97 100 100 100 100 100 100 100 100 100 100 100 100 100 100 100 100 97 100 97 87 87 87 81 74 10 3 3 0 74 94 100 100 100 100 97 90
87 87 90 94 94 94 97 100 100 100 100 100 100 100 100 97 97 100 100 100 100 100 100 97 94 87 84 26 35 71 16 3 3 6 6 84 94 97 100 100 100 97 97
81 81 84 87 87 90 94 100 100 100 100 97 97 100 97 90 87 94 94 97 97 97 84 84 87 61 39 10 6 6 3 3 3 0 3 90 94 94 97 100 97 97 97
68 71 71 77 84 81 81 90 94 94 90 94 97 97 90 84 77 65 74 81 71 68 48 45 35 23 13 3 3 3 0 3 0 0 23 94 94 94 94 94 90 87 90
68 68 65 65 65 65 77 77 81 81 90 87 90 90 77 61 68 52 58 61 58 35 23 19 16 10 3 0 0 3 0 0 0 6 26 81 87 87 84 77 77 74 77
61 55 55 58 58 58 68 71 74 74 74 71 77 77 68 42 32 42 39 39 32 29 19 6 3 3 0 0 0 0 0 0 0 3 16 45 68 71 71 71 74 68 74
58 52 48 45 42 48 58 61 61 61 65 48 58 61 39 23 16 16 16 13 16 6 0 0 3 3 0 0 0 0 0 0 0 0 6 10 26 55 55 55 55 58 58
48 42 52 55 48 45 45 48 42 45 42 29 35 39 26 13 10 6 6 13 0 0 0 0 0 0 0 0 0 0 0 0 0 0 0 3 6 6 16 35 35 39 29
29 26 35 35 42 39 35 35 35 32 32 23 32 29 26 26 13 3 6 3 0 0 0 0 0 0 0 0 0 0 0 0 0 0 0 0 3 3 0 6 13 16 16
26 26 32 29 29 29 32 29 29 23 16 19 16 19 19 23 16 3 3 0 0 0 0 0 0 0 0 0 0 0 0 0 0 0 0 0 0 0 0 0 0 6 6
10 16 23 23 29 29 32 26 23 13 13 13 13 13 16 10 10 6 3 3 0 0 3 0 0 0 0 0 0 0 0 0 0 0 0 0 0 0 0 0 0 0 0
10 13 13 16 19 19 23 19 19 13 13 13 6 6 13 10 6 6 6 6 3 0 0 0 0 0 0 0 0 0 0 0 0 0 0 0 0 0 0 0 0 0 0
3 6 13 10 13 13 19 19 16 16 16 10 10 6 10 6 6 6 10 6 3 3 0 0 0 0 0 0 0 0 0 0 0 0 0 0 0 0 0 0 0 0 0
3 3 3 3 10 13 16 13 19 13 10 6 3 3 0 0 0 0 0 0 0 0 0 0 0 0 0 0 0 0 0 0 0 0 0 0 0 0 0 0 0 0 0
0 0 3 3 3 6 10 10 10 10 6 3 3 0 0 0 0 0 0 0 0 0 0 0 0 0 0 0 0 0 0 0 0 0 0 0 0 0 0 0 0 0 0
3 3 6 6 3 3 3 10 10 10 3 0 0 0 0 0 0 0 0 0 0 0 0 0 0 0 0 0 0 0 0 0 0 0 0 0 0 0 0 0 0 0 0